GS0511 Weather Reports


time (UTC)temp
C
wind
direction
speed
KPH
gust
KPH
rain 1hr
cm
rain 24hr
cm
rain mn
cm
humidity
%
barometer
mb
20260509153000 15 215 3.2 9.7 0.00 0.00 0.00 75 1007.7
20260509151458 14 230 4.8 9.7 0.00 0.00 0.00 76 1007.7
20260509150002 14 185 4.8 11.3 0.00 0.00 0.00 77 1007.9
20260509144459 14 165 4.8 11.3 0.00 0.00 0.00 76 1007.9
20260509142958 14 188 4.8 8.0 0.00 0.00 0.00 78 1008.2
20260509141500 13 144 4.8 11.3 0.00 0.00 0.00 79 1008.1
20260509134459 13 127 4.8 12.9 0.00 0.00 0.00 80 1008.3
20260509132959 12 139 6.4 12.9 0.00 0.00 0.00 82 1008.6
20260509131458 12 199 8.0 12.9 0.00 0.00 0.00 83 1008.9
20260509130001 11 168 4.8 12.9 0.00 0.00 0.00 84 1008.9
20260509122958 10 173 3.2 8.0 0.00 0.08 0.00 86 1009.2
20260509120002 7 214 0.0 1.6 0.00 0.08 0.00 88 1009.1
20260509114458 6 201 0.0 0.0 0.00 0.08 0.00 90 1009.2
20260509112958 5 212 0.0 1.6 0.00 0.08 0.00 90 1009.2
20260509111458 5 303 0.0 0.0 0.00 0.08 0.00 90 1009.3
20260509104458 3 303 0.0 0.0 0.00 0.08 0.00 91 1009.1
20260509101458 3 303 0.0 0.0 0.00 0.08 0.00 92 1009.1
20260509100002 3 303 0.0 0.0 0.00 0.08 0.00 92 1009.1
20260509094458 3 303 0.0 0.0 0.00 0.08 0.00 92 1009.1
20260509092959 3 303 0.0 0.0 0.00 0.08 0.00 92 1009.1
20260509091459 3 303 0.0 0.0 0.00 0.08 0.00 91 1009.2
20260509090002 3 303 0.0 0.0 0.00 0.08 0.00 91 1009.3
20260509084459 3 303 0.0 0.0 0.00 0.08 0.00 92 1009.4
20260509082959 2 303 0.0 0.0 0.00 0.08 0.00 92 1009.4
20260509081458 2 303 0.0 0.0 0.00 0.08 0.00 92 1009.6
20260509080000 2 303 0.0 0.0 0.00 0.08 0.00 92 1009.6
20260509074500 2 303 0.0 0.0 0.00 0.08 0.00 92 1009.8
20260509070000 2 303 0.0 0.0 0.00 0.08 0.00 91 1010.0
20260509064458 2 303 0.0 0.0 0.00 0.08 0.00 90 1010.1
20260509062957 2 303 0.0 0.0 0.00 0.08 0.00 90 1010.4
20260509061457 3 303 0.0 0.0 0.00 0.08 0.00 89 1010.5
20260509060000 3 303 0.0 0.0 0.00 0.08 0.00 89 1010.7
20260509054457 3 303 0.0 0.0 0.00 0.08 0.00 89 1010.8
20260509052958 3 303 0.0 0.0 0.00 0.08 0.00 88 1010.9
20260509051457 3 303 0.0 0.0 0.00 0.08 0.00 90 1011.1
20260509050001 3 303 0.0 0.0 0.00 0.08 0.00 90 1011.2
20260509044457 3 303 0.0 0.0 0.00 0.10 0.00 88 1011.2
20260509042958 3 303 0.0 0.0 0.00 0.10 0.00 88 1011.4
20260509041458 4 303 0.0 0.0 0.00 0.10 0.00 88 1011.7
20260509040007 4 303 0.0 0.0 0.00 0.10 0.00 89 1011.7
20260509033001 5 303 0.0 0.0 0.00 0.18 0.10 89 1011.6
20260509031502 5 303 0.0 0.0 0.00 0.18 0.10 88 1011.8
20260509030003 5 303 0.0 0.0 0.00 0.18 0.10 87 1011.9
20260509024500 6 303 0.0 0.0 0.00 0.20 0.10 86 1011.8
20260509023000 6 303 0.0 0.0 0.00 0.20 0.10 84 1011.7
20260509021500 6 303 0.0 0.0 0.00 0.20 0.10 82 1011.8
20260509020004 7 303 0.0 0.0 0.00 0.20 0.10 81 1011.8
20260509014500 7 303 0.0 0.0 0.00 0.20 0.10 77 1011.8
20260509011502 8 303 0.0 0.0 0.00 0.20 0.10 72 1011.8
20260509010004 8 303 0.0 0.0 0.00 0.20 0.10 74 1011.5
20260509004500 10 303 0.0 0.0 0.00 0.20 0.10 71 1011.3
20260509003000 10 303 0.0 0.0 0.00 0.20 0.10 66 1011.2
20260509001500 11 303 0.0 0.0 0.00 0.20 0.10 64 1011.2
20260508234500 12 303 0.0 0.0 0.00 0.20 0.10 63 1011.1
20260508233000 12 303 0.0 1.6 0.00 0.20 0.10 51 1011.0
20260508230007 13 283 0.0 1.6 0.00 0.20 0.10 46 1010.9
20260508223000 13 274 4.8 11.3 0.00 0.20 0.10 42 1010.9
20260508221500 13 360 3.2 4.8 0.00 0.20 0.10 45 1010.9
20260508220008 14 251 3.2 12.9 0.00 0.20 0.10 40 1011.0
20260508214500 13 274 4.8 9.7 0.00 0.20 0.10 44 1011.0
20260508211500 13 345 4.8 12.9 0.00 0.20 0.10 48 1011.1
20260508210003 13 235 4.8 17.7 0.00 0.20 0.10 41 1011.2
20260508204500 13 184 4.8 12.9 0.00 0.20 0.10 45 1011.3
20260508203000 13 32 4.8 11.3 0.00 0.20 0.10 50 1011.4
20260508201500 13 256 6.4 14.5 0.00 0.20 0.10 45 1011.6
20260508200002 13 286 6.4 17.7 0.00 0.20 0.10 46 1011.8
20260508192959 12 272 6.4 12.9 0.00 0.20 0.10 50 1012.2
20260508191459 12 227 4.8 16.1 0.00 0.20 0.10 51 1012.4
20260508190004 13 330 4.8 11.3 0.00 0.20 0.10 49 1012.3
20260508184459 12 290 4.8 14.5 0.00 0.20 0.10 52 1012.4
20260508182959 12 325 6.4 12.9 0.00 0.20 0.10 51 1012.4
20260508181459 12 214 6.4 17.7 0.00 0.20 0.10 52 1012.5
20260508180006 11 182 8.0 14.5 0.00 0.20 0.10 59 1012.6
20260508174459 11 267 6.4 11.3 0.00 0.20 0.10 58 1012.8
20260508172959 11 213 8.0 12.9 0.00 0.20 0.10 64 1012.8
20260508170003 10 267 6.4 16.1 0.00 0.20 0.10 67 1013.1
20260508164459 10 221 6.4 12.9 0.00 0.20 0.10 66 1013.1
20260508162959 9 209 4.8 11.3 0.00 0.20 0.10 71 1013.3
20260508161459 9 294 8.0 14.5 0.00 0.20 0.10 71 1013.6
20260508160004 8 209 6.4 16.1 0.00 0.20 0.10 73 1013.6
20260508154459 8 170 6.4 14.5 0.00 0.20 0.10 72 1013.6